Regional Weather Roundup
Issued by NWS Nashville, TN

Home | Current Version | Previous Version | Text Only | Print | Product List | Glossary On
Versions: 1 2 3 4 5 6 7 8 9 10 11 12 13 14 15 16 17 18 19 20 21 22 23 24 25 26 27 28 29 30 31 32 33 34 35 36 37 38 39 40 41 42 43 44 45 46 47 48 49 50
000
ASUS44 KOHX 210515
RWROHX
MIDDLE TENNESSEE HOURLY WEATHER ROUNDUP
NATIONAL WEATHER SERVICE NASHVILLE TN
1100 PM CST SAT DEC 20 2014

NOTE: "FAIR" INDICATES FEW OR NO CLOUDS BELOW 12,000 FEET WITH
NO SIGNIFICANT WEATHER AND/OR OBSTRUCTIONS TO VISIBILITY.

* THESE REPORTS ARE NOT UNDER NWS QUALITY CONTROL AND MAY NOT
  REPORT WEATHER SUCH AS PRECIPITATION AND FOG.


TNZ005>011-023>034-057-059-062>066-078-080-210600
...NORTHERN MIDDLE TENNESSEE...

CITY           SKY/WX    TMP DP  RH WIND       PRES   REMARKS
CLARKSVILLE    CLEAR     26  24  92 CALM      30.28S
CROSSVILLE     CLEAR     32  24  72 NE3       30.23R
GALLATIN         N/A     31  27  85 CALM      30.27S
DICKSON        CLEAR     32  27  80 CALM      30.26R
LEBANON        CLEAR     27  25  92 CALM      30.25
LIVINGSTON     CLEAR     30  26  85 NE3       30.23S
NASHVILLE      PTCLDY    30  27  88 CALM      30.28R
WEST NASHVILLE   N/A     28  28 100 CALM      30.28S
PORTLAND       CLEAR     25  23  93 CALM      30.25F
SMYRNA         CLEAR     27  24  88 CALM      30.29R
SPARTA         CLEAR     25  21  86 CALM      30.24R
$$
TNZ056-058-060-061-075>077-079-093>097-210600
...SOUTHERN MIDDLE TENNESSEE...

CITY           SKY/WX    TMP DP  RH WIND       PRES   REMARKS
COLUMBIA       CLEAR     28  28 100 CALM      30.25R
LEWISBURG      CLEAR     27  24  88 CALM      30.26S
MCMINNVILLE    CLEAR     28  27  93 CALM      30.24S
MURFREESBORO   CLEAR     31  28  88 CALM      30.26S
SHELBYVILLE    CLEAR     28  27  93 CALM      30.26S
TULLAHOMA      CLEAR     28  25  86 CALM      30.24S
WINCHESTER     CLEAR     27  25  93 CALM      30.24S
$$


...KEY TO REMARKS...
VSB - VISIBILITY IN MILES
WCI - WIND CHILL INDEX
HX  - HEAT INDEX




USA.gov is the U.S. government's official web portal to all federal, state and local government web resources and services.